| time (UTC) | temp F | wind direction | speed MPH | gust MPH | rain 1hr in | rain 24hr in | rain mn in | humidity % | barometer mb |
| 20260505220020 | 68 | 209 | 0.0 | 2.0 | 0.00 | 0.33 | 0.33 | 94 | 1005.5 |
| 20260505214508 | 68 | 190 | 1.0 | 3.0 | 0.00 | 0.33 | 0.33 | 94 | 1005.2 |
| 20260505213006 | 67 | 169 | 0.0 | 0.0 | 0.00 | 0.33 | 0.33 | 94 | 1004.7 |
| 20260505211506 | 67 | 205 | 0.0 | 2.0 | 0.00 | 0.33 | 0.33 | 94 | 1005.2 |
| 20260505210005 | 67 | 202 | 1.0 | 4.0 | 0.00 | 0.33 | 0.33 | 94 | 1005.5 |
| 20260505204504 | 67 | 198 | 0.0 | 4.0 | 0.00 | 0.33 | 0.33 | 94 | 1005.5 |
| 20260505203002 | 67 | 188 | 0.0 | 4.0 | 0.00 | 0.33 | 0.33 | 94 | 1005.6 |
| 20260505201605 | 67 | 172 | 0.0 | 4.0 | 0.00 | 0.33 | 0.33 | 95 | 1005.6 |
| 20260505201501 | 67 | 186 | 0.0 | 4.0 | 0.00 | 0.33 | 0.33 | 95 | 1005.7 |
| 20260505200105 | 67 | 227 | 0.0 | 0.0 | 0.00 | 0.33 | 0.33 | 95 | 1005.8 |
| 20260505194600 | 67 | 221 | 0.0 | 0.0 | 0.00 | 0.33 | 0.33 | 95 | 1005.8 |
| 20260505193100 | 67 | 234 | 0.0 | 0.0 | 0.00 | 0.33 | 0.33 | 94 | 1005.7 |
| 20260505191601 | 66 | 200 | 0.0 | 2.0 | 0.00 | 0.33 | 0.33 | 95 | 1005.9 |
| 20260505190057 | 66 | 191 | 0.0 | 1.0 | 0.00 | 0.33 | 0.33 | 95 | 1005.9 |
| 20260505184602 | 66 | 205 | 0.0 | 2.0 | 0.00 | 0.33 | 0.33 | 94 | 1005.7 |
| 20260505183054 | 66 | 196 | 1.0 | 3.0 | 0.00 | 0.33 | 0.33 | 94 | 1005.8 |
| 20260505181554 | 66 | 155 | 1.0 | 4.0 | 0.00 | 0.33 | 0.33 | 95 | 1005.7 |
| 20260505180058 | 65 | 180 | 2.0 | 5.0 | 0.00 | 0.33 | 0.33 | 95 | 1005.7 |
| 20260505173049 | 65 | 198 | 1.0 | 5.0 | 0.00 | 0.33 | 0.33 | 96 | 1005.8 |
| 20260505171548 | 65 | 186 | 0.0 | 3.0 | 0.00 | 0.33 | 0.33 | 96 | 1005.9 |
| 20260505170117 | 65 | 186 | 1.0 | 3.0 | 0.00 | 0.33 | 0.33 | 96 | 1006.1 |
| 20260505164549 | 64 | 179 | 0.0 | 4.0 | 0.00 | 0.33 | 0.33 | 96 | 1006.2 |
| 20260505163046 | 64 | 195 | 0.0 | 2.0 | 0.00 | 0.33 | 0.33 | 96 | 1006.4 |
| 20260505161555 | 64 | 179 | 0.0 | 3.0 | 0.00 | 0.33 | 0.33 | 96 | 1006.4 |
| 20260505153054 | 63 | 174 | 1.0 | 3.0 | 0.00 | 0.33 | 0.33 | 96 | 1006.5 |
| 20260505151549 | 63 | 186 | 2.0 | 5.0 | 0.00 | 0.33 | 0.33 | 96 | 1006.5 |
| 20260505124532 | 60 | 202 | 1.0 | 4.0 | 0.05 | 0.33 | 0.33 | 97 | 1006.1 |
| 20260505123050 | 60 | 188 | 0.0 | 2.0 | 0.05 | 0.33 | 0.33 | 97 | 1006.8 |
| 20260505121528 | 60 | 181 | 1.0 | 2.0 | 0.11 | 0.33 | 0.33 | 96 | 1006.8 |
| 20260505120030 | 60 | 19 | 2.0 | 4.0 | 0.15 | 0.32 | 0.32 | 96 | 1007.0 |
| 20260505114523 | 60 | 189 | 3.0 | 7.0 | 0.15 | 0.28 | 0.28 | 96 | 1006.9 |
| 20260505113032 | 60 | 194 | 0.0 | 2.0 | 0.20 | 0.28 | 0.28 | 95 | 1006.9 |
| 20260505111536 | 60 | 182 | 0.0 | 0.0 | 0.19 | 0.22 | 0.22 | 95 | 1006.8 |
| 20260505101515 | 62 | 271 | 1.0 | 4.0 | 0.03 | 0.03 | 0.03 | 88 | 1006.9 |
| 20260505100010 | 63 | 287 | 0.0 | 0.0 | 0.00 | 0.00 | 0.00 | 84 | 1006.7 |
| 20260505094508 | 63 | 301 | 0.0 | 1.0 | 0.00 | 0.00 | 0.00 | 80 | 1006.3 |
| 20260505093005 | 64 | 275 | 0.0 | 2.0 | 0.00 | 0.00 | 0.00 | 77 | 1005.8 |
| 20260505091505 | 64 | 170 | 1.0 | 3.0 | 0.00 | 0.00 | 0.00 | 77 | 1005.5 |
| 20260505090005 | 64 | 189 | 1.0 | 4.0 | 0.00 | 0.00 | 0.00 | 76 | 1005.3 |
| 20260505084507 | 64 | 195 | 0.0 | 4.0 | 0.00 | 0.00 | 0.00 | 75 | 1005.1 |
| 20260505083008 | 64 | 189 | 1.0 | 3.0 | 0.00 | 0.00 | 0.00 | 76 | 1005.3 |
| 20260505081600 | 65 | 196 | 0.0 | 5.0 | 0.00 | 0.00 | 0.00 | 73 | 1005.0 |
| 20260505081502 | 65 | 284 | 0.0 | 5.0 | 0.00 | 0.00 | 0.00 | 73 | 1005.1 |
| 20260505080059 | 65 | 179 | 2.0 | 4.0 | 0.00 | 0.00 | 0.00 | 74 | 1005.5 |
| 20260505074557 | 64 | 161 | 2.0 | 4.0 | 0.00 | 0.00 | 0.00 | 75 | 1005.8 |
| 20260505073056 | 64 | 213 | 0.0 | 4.0 | 0.00 | 0.00 | 0.00 | 75 | 1006.1 |
| 20260505071553 | 64 | 173 | 2.0 | 4.0 | 0.00 | 0.00 | 0.00 | 74 | 1006.2 |
| 20260505070053 | 64 | 177 | 1.0 | 5.0 | 0.00 | 0.00 | 0.00 | 73 | 1006.3 |
| 20260505064600 | 64 | 158 | 1.0 | 5.0 | 0.00 | 0.00 | 0.00 | 74 | 1006.5 |
| 20260505063053 | 64 | 205 | 1.0 | 5.0 | 0.00 | 0.00 | 0.00 | 74 | 1006.7 |
| 20260505061548 | 64 | 189 | 1.0 | 4.0 | 0.00 | 0.00 | 0.00 | 74 | 1006.8 |
| 20260505060046 | 64 | 213 | 2.0 | 4.0 | 0.00 | 0.00 | 0.00 | 74 | 1007.2 |
| 20260505054550 | 64 | 202 | 2.0 | 5.0 | 0.00 | 0.00 | 0.00 | 74 | 1007.5 |
| 20260505053040 | 64 | 164 | 0.0 | 0.0 | 0.00 | 0.00 | 0.00 | 75 | 1007.8 |
| 20260505051537 | 64 | 194 | 1.0 | 3.0 | 0.00 | 0.00 | 0.00 | 74 | 1007.8 |
| 20260505041535 | 65 | 194 | 0.0 | 2.0 | 0.00 | 0.00 | 0.00 | 73 | 1008.0 |
| 20260505040034 | 66 | 181 | 0.0 | 5.0 | 0.00 | 0.00 | 0.00 | 71 | 1008.0 |
| 20260505034536 | 67 | 161 | 0.0 | 4.0 | 0.00 | 0.00 | 0.00 | 70 | 1008.1 |
| 20260505033035 | 67 | 211 | 1.0 | 2.0 | 0.00 | 0.00 | 0.00 | 70 | 1008.2 |
| 20260505031531 | 67 | 196 | 1.0 | 5.0 | 0.00 | 0.00 | 0.00 | 69 | 1008.1 |
| 20260505030031 | 68 | 196 | 1.0 | 6.0 | 0.00 | 0.00 | 0.00 | 68 | 1007.9 |
| 20260505024540 | 68 | 178 | 1.0 | 6.0 | 0.00 | 0.00 | 0.00 | 68 | 1007.9 |
| 20260505023030 | 68 | 191 | 3.0 | 6.0 | 0.00 | 0.00 | 0.00 | 68 | 1007.7 |
| 20260505021536 | 68 | 175 | 2.0 | 5.0 | 0.00 | 0.00 | 0.00 | 68 | 1007.5 |
| 20260505020031 | 68 | 190 | 1.0 | 3.0 | 0.00 | 0.00 | 0.00 | 67 | 1007.3 |
| 20260505014536 | 69 | 176 | 1.0 | 6.0 | 0.00 | 0.00 | 0.00 | 66 | 1007.3 |
| 20260505013029 | 69 | 182 | 3.0 | 5.0 | 0.00 | 0.00 | 0.00 | 66 | 1006.9 |
| 20260505011527 | 70 | 180 | 1.0 | 6.0 | 0.00 | 0.00 | 0.00 | 65 | 1006.9 |
| 20260505010026 | 71 | 182 | 3.0 | 7.0 | 0.00 | 0.00 | 0.00 | 63 | 1006.6 |
| 20260505004526 | 72 | 161 | 3.0 | 8.0 | 0.00 | 0.00 | 0.00 | 62 | 1006.7 |
| 20260505003024 | 72 | 196 | 2.0 | 11.0 | 0.00 | 0.00 | 0.00 | 61 | 1006.6 |
| 20260505001524 | 73 | 193 | 4.0 | 13.0 | 0.00 | 0.00 | 0.00 | 60 | 1006.6 |
| 20260505000031 | 73 | 164 | 4.0 | 12.0 | 0.00 | 0.00 | 0.00 | 59 | 1006.6 |
| 20260504234523 | 74 | 233 | 4.0 | 9.0 | 0.00 | 0.00 | 0.00 | 59 | 1006.6 |
| 20260504233022 | 75 | 197 | 7.0 | 14.0 | 0.00 | 0.00 | 0.00 | 56 | 1006.8 |
| 20260504231526 | 76 | 190 | 6.0 | 14.0 | 0.00 | 0.00 | 0.00 | 56 | 1007.1 |
| 20260504230018 | 76 | 223 | 3.0 | 11.0 | 0.00 | 0.00 | 0.00 | 55 | 1007.2 |
| 20260504224522 | 77 | 180 | 5.0 | 14.0 | 0.00 | 0.00 | 0.00 | 53 | 1007.2 |
| 20260504223015 | 77 | 215 | 6.0 | 15.0 | 0.00 | 0.00 | 0.00 | 53 | 1007.1 |
| 20260504221513 | 77 | 187 | 5.0 | 9.0 | 0.00 | 0.00 | 0.00 | 54 | 1007.2 |